Weather in Omdurman

Sudan     15°39′40″N   32°25′22″E
temp.,
°C
wind,
m/s
gust,
m/s
humid.,
%
clouds,
%
prec.,
mm/h
press.,
hPa
HPBL,
m
18 april, sun
sun1823:00+32nnw5640 0.0 100793
02:00+29n61060 0.0 1006173
05:00+27n58100 0.0 1008142
08:00+31ne69100 0.0 1009429
11:00+37ne6590 0.0 10081893
14:00+39ne1170 0.0 10052562
17:00+39nnw1274 0.0 10042668
20:00+36nnw4682 0.0 1005147
19 april, mon
mon1923:00+33nnw45100 0.0 1006114
02:00+32nnw45115 0.0 100590
05:00+30ne58130 0.0 1007139
08:00+33e46280 0.0 1008368
11:00+39e44125 0.0 10062357
14:00+41ssw12971 0.0 10044448
17:00+41w2285 0.0 10034503
20:00+38nw3492 0.0 1004125
20 april, tue
tue2023:00+35nnw5785 0.0 1005148
02:00+33n5890 0.0 1004146
05:00+31n451191 0.0 100596
08:00+34ene23145 0.0 1007256
11:00+40e34135 0.0 10061729
14:00+41wsw3380 0.0 10024595
17:00+41w3380 0.0 10014046
20:00+38wnw5774 0.0 1003195
21 april, wed
wed2123:00+35n4585 0.0 100491
02:00+33nnw4595 0.0 1003107
05:00+31n46135 0.0 1004101
08:00+35ese56199 0.0 1006391
11:00+41ese42123 0.0 10043075
14:00+42ssw1283 0.0 10014875
17:00+42wsw34883 0.0 10014864
20:00+39nne451059 0.0 1003239
22 april, thu
thu2223:00+36ne34121 0.0 100389
02:00+34ne46140 0.0 1002142
05:00+32ne24160 0.0 1004150
08:00+35ese46170 0.0 1006488
11:00+40se56135 0.0 10051427
14:00+42ssw1385 0.0 10025059
17:00+42w33734 0.0 10004772
20:00+39nnw45960 0.0 1002204